Location: Newark
(25.0000°N, 73.5000°E)
Time: 10:41:36
(UTC+00:00)

Vanguard 1 - All Passes

Search period start: 01 March 2021 00:00
Search period end: 11 March 2021 00:00
Orbit: 649 x 3833 km, 34.2° (Epoch: 28 February)

Date Brightness Start Highest point End Pass type
(mag) Time Alt. Az. Time Alt. Az. Time Alt. Az.
01 Mar - 01:33:25 10° NW 01:37:43 33° NNE 01:43:44 10° ENE daylight
01 Mar - 03:52:35 10° WNW 03:58:44 86° NNE 04:10:11 10° ESE daylight
01 Mar - 06:12:53 10° W 06:21:05 37° SSW 06:35:05 10° SSE daylight
01 Mar - 08:41:50 10° SW 08:46:20 12° SSW 08:51:27 10° SSW daylight
01 Mar - 18:51:05 10° S 18:56:17 17° SSE 19:00:12 10° ESE night (unlit)
01 Mar - 21:11:04 10° SW 21:17:23 71° SSE 21:21:52 10° ENE night (unlit)
01 Mar - 23:33:40 10° WNW 23:37:41 31° N 23:41:52 10° NE visible
02 Mar - 01:54:18 10° NW 01:58:50 39° NNE 02:05:32 10° E daylight
02 Mar - 04:13:26 10° WNW 04:19:47 74° SSW 04:31:39 10° SE daylight
02 Mar - 06:34:39 10° W 06:42:35 27° SSW 06:55:03 10° SSE daylight
02 Mar - 19:10:31 10° SSW 19:17:33 25° SSE 19:22:19 10° E night (unlit)
02 Mar - 21:32:12 10° WSW 21:38:17 76° NNW 21:42:43 10° ENE night (unlit)
02 Mar - 23:55:01 10° WNW 23:58:51 27° N 00:03:00 10° ENE visible
03 Mar - 02:15:04 10° NW 02:19:52 49° NNE 02:27:20 10° E daylight
03 Mar - 04:34:22 10° WNW 04:40:53 55° SSW 04:52:45 10° SE daylight
03 Mar - 06:57:07 10° WSW 07:04:12 19° SSW 07:14:13 10° S daylight
03 Mar - 19:30:43 10° SW 19:38:44 37° SSE 19:43:46 10° E night (unlit)
03 Mar - 21:53:35 10° W 21:59:12 52° NNW 22:03:31 10° ENE visible
04 Mar - 00:16:14 10° NW 00:20:02 27° N 00:24:19 10° ENE visible
04 Mar - 02:35:50 10° WNW 02:40:50 66° NNE 02:49:02 10° ESE daylight
04 Mar - 04:55:32 10° W 05:02:05 40° SSW 05:13:29 10° SE daylight
04 Mar - 07:21:11 10° SW 07:25:59 13° SSW 07:31:49 10° S daylight
04 Mar - 17:31:11 10° S 17:37:40 16° SSE 17:42:29 10° ESE visible
04 Mar - 19:51:24 10° SW 19:59:48 55° SSE 20:04:53 10° ENE night (unlit)
04 Mar - 22:15:06 10° W 22:20:11 38° NNW 22:24:19 10° NE visible
05 Mar - 00:37:17 10° NW 00:41:11 29° N 00:45:49 10° ENE visible
05 Mar - 02:56:36 10° WNW 03:01:47 90° NNE 03:10:32 10° ESE daylight
05 Mar - 05:17:00 10° W 05:23:25 29° SSW 05:33:43 10° SSE daylight
05 Mar - 17:50:16 10° SSW 17:59:08 24° SSE 18:04:58 10° ESE visible
05 Mar - 20:12:28 10° WSW 20:20:47 80° SSE 20:25:49 10° ENE night (unlit)
05 Mar - 22:36:41 10° WNW 22:41:14 30° NNW 22:45:11 10° NE visible
06 Mar - 00:58:10 10° NW 01:02:17 35° NNE 01:07:26 10° E visible
06 Mar - 03:17:28 10° WNW 03:22:45 65° SSW 03:31:45 10° SE daylight
06 Mar - 05:39:03 10° WSW 05:44:52 20° SSW 05:53:17 10° SSE daylight
06 Mar - 18:10:13 10° SSW 18:20:29 34° SSE 18:26:40 10° E visible
06 Mar - 20:33:50 10° WSW 20:41:43 74° NNW 20:46:37 10° ENE night (unlit)
06 Mar - 22:58:12 10° WNW 23:02:23 27° N 23:06:11 10° NE visible
07 Mar - 01:18:59 10° NW 01:23:18 47° NNE 01:29:02 10° E daylight
07 Mar - 03:38:29 10° W 03:43:48 45° SSW 03:52:39 10° SE daylight
07 Mar - 06:02:18 10° SW 06:06:26 13° SSW 06:11:35 10° S daylight
07 Mar - 16:10:40 10° S 16:18:23 16° SSE 16:24:14 10° ESE visible
07 Mar - 18:30:44 10° SW 18:41:43 47° SSE 18:47:56 10° E night (unlit)
07 Mar - 20:55:26 10° W 21:02:39 54° NNW 21:07:22 10° ENE night (unlit)
07 Mar - 23:19:33 10° WNW 23:23:34 26° N 23:27:23 10° ENE visible
08 Mar - 01:39:45 10° WNW 01:44:14 66° NNE 01:50:31 10° ESE daylight
08 Mar - 03:59:46 10° W 04:04:57 31° SSW 04:13:06 10° SSE daylight
08 Mar - 16:29:17 10° SSW 16:40:03 23° SSE 16:47:15 10° ESE visible
08 Mar - 18:51:40 10° SW 19:02:51 65° SSE 19:08:58 10° ENE night (unlit)
08 Mar - 21:17:09 10° W 21:23:40 41° NNW 21:28:09 10° NE night (unlit)
08 Mar - 23:40:42 10° NW 23:44:44 29° N 23:48:44 10° ENE visible
09 Mar - 02:00:34 10° WNW 02:05:08 84° SSW 02:11:49 10° ESE daylight
09 Mar - 04:21:30 10° WSW 04:26:12 21° SSW 04:32:58 10° SSE daylight
09 Mar - 16:48:55 10° SSW 17:01:34 32° SSE 17:09:16 10° E visible
09 Mar - 19:12:58 10° WSW 19:23:53 86° SSE 19:29:50 10° ENE night (unlit)
09 Mar - 21:38:56 10° WNW 21:44:44 34° NNW 21:48:59 10° NE visible
10 Mar - 00:01:41 10° NW 00:05:51 35° NNE 00:10:10 10° E visible
10 Mar - 02:21:30 10° WNW 02:26:04 55° SSW 02:32:48 10° SE daylight
10 Mar - 04:44:14 10° SW 04:47:35 13° SSW 04:51:45 10° S daylight
10 Mar - 14:50:05 10° S 14:58:20 14° SSE 15:04:56 10° ESE visible
10 Mar - 17:09:11 10° SW 17:22:59 42° SSE 17:30:46 10° E visible
10 Mar - 19:34:33 10° WSW 19:44:53 73° NNW 19:50:38 10° ENE night (unlit)
10 Mar - 22:00:37 10° WNW 22:05:54 30° N 22:09:56 10° NE visible
